Location: Santaluz Observatory
(32.9930°N, 117.1510°W)
Time: 04:19:54
(UTC-08:00)

Hubble Space Telescope - Visible Passes

Search period start: 20 December 2014 00:00
Search period end: 30 December 2014 00:00
Orbit: 545 x 549 km, 28.5° (Epoch: 19 December)

Date Brightness Start Highest point End Pass type
(mag) Time Alt. Az. Time Alt. Az. Time Alt. Az.
20 Dec 2.5 18:20:39 10° WSW 18:24:14 28° SSW 18:26:22 18° SSE visible
21 Dec 2.8 18:13:04 10° WSW 18:16:24 23° SSW 18:19:33 11° SE visible
22 Dec 3.2 18:05:34 10° WSW 18:08:33 19° SSW 18:11:32 10° SSE visible
23 Dec 3.5 17:58:12 10° WSW 18:00:41 15° SSW 18:03:09 10° SSE visible
24 Dec 3.7 17:51:11 10° SW 17:52:47 12° SSW 17:54:23 10° S visible
